Location: Bílinka
(49.3579°N, 14.3767°E)
Time: 02:17:14
(UTC+00:00)

SL-16 R/B - Pass Details

Date: 28 January 2023
Orbit: 842 x 846 km, 71.0° (Epoch: 30 March)

Event Time Altitude Azimuth Distance (km) Brightness Sun altitude
Rises 16:33:10 0° 142° (SE) 3,388 5.2 -7.0°
Reaches altitude 10° 16:38:03 10° 104° (ESE) 2,463 4.1 -7.8°
Maximum altitude 16:39:04 11° 94° (E) 2,431 4.0 -8.0°
Drops below altitude 10° 16:40:04 10° 84° (E) 2,466 4.0 -8.1°
Enters shadow 16:40:29 10° 79° (E) 2,500 4.0 -8.2°
